Flag for Saudi Arabia Weather past 2 weeks in Riyadh, Saudi Arabia

Now
84 °F

Clear.


Feels Like: 81 °F
Forecast: 72 / 98 °F
Wind: 8 mph from Southeast

Location: Riyadh Airport

Current Time: Apr 27, 2015 at 10:36:32 PM

Latest Report: Apr 27, 2015 at 10:00 PM


Visibility: 5 mi

Pressure: 30.04 "Hg

Humidity: 12%

Dew point: 27 °F

Location of RiyadhLocation

Historic Weather in Riyadh — Graph

°F

Riyadh temperature yesterday

Maximum temperature yesterday: 88 °F (at 3:00 PM)
Minimum temperature yesterday: 57 °F (at 10:00 AM)
Average temperature yesterday: 74 °F

Past Weeks' High & Low Weather Summary

 TemperatureHumidityPressure
High104 °F (Apr 24, 2:00 PM)33% (Apr 26, 10:00 AM)30.21 "Hg (Apr 26, 10:00 AM)
Low57 °F (Apr 26, 10:00 AM)9% (Apr 12, 11:00 PM)29.86 "Hg (Apr 22, 4:00 PM)
Average82 °F17%30.04 "Hg
* Reported Apr 12 9:00 PM — Apr 27 9:00 PM, Riyadh, Weather by CustomWeather, © 2015

Note: Actual official high and low records may vary slightly from our data, if they occured in-between our weather recording intervals... More about our weather records

Advertising

Riyadh weather history for previous 24 hours

 ConditionsComfort  
Time TempWeatherWind HumidityBarometerVisibility
9:00 PM
Mon, Apr 27
86 °FClear.8 mph11%30.01 "Hg10 mi
8:00 PM88 °FClear.9 mph10%30.01 "Hg10 mi
7:00 PM90 °FClear.5 mph11%29.98 "Hg10 mi
6:00 PM91 °FSunny.5 mph10%29.98 "Hg10 mi
5:00 PM95 °FSunny.3 mph9%29.98 "Hg10 mi
4:00 PM95 °FSunny.3 mph9%29.98 "Hg10 mi
3:00 PM95 °FSunny.6 mph9%29.98 "Hg10 mi
2:00 PM95 °FSunny.6 mph9%30.01 "Hg10 mi
1:00 PM93 °FSunny.6 mph9%30.04 "Hg10 mi
12:00 PM90 °FSunny.7 mph10%30.07 "Hg10 mi
11:00 AM88 °FSunny.7 mph10%30.09 "Hg10 mi
10:00 AM84 °FSunny.5 mph10%30.09 "Hg10 mi
9:00 AM82 °FSunny.5 mph10%30.12 "Hg10 mi
8:00 AM77 °FSunny.No wind13%30.09 "Hg10 mi
7:00 AM72 °FSunny.No wind19%30.09 "Hg10 mi
6:00 AM66 °FSunny.No wind22%30.07 "Hg10 mi
5:00 AM66 °FClear.No wind22%30.07 "Hg10 mi
Weather by CustomWeather, © 2015

See weather overviewHow to use our weather pages